sat.trackr.live / text

‹ back to catalog

STARLINK-34869

NORAD 65371 · 2025-190W

PAYLOAD ACTIVE UNKNOWN

§ Identity

Operator
Country
US
Launch date
2025-08-28
Launch site
AFETR
Launch vehicle
Mass (kg)
RCS (m²)

Purposes: comms

External: N2YO · Heavens-Above · Gunter

§ Orbital elements

Epoch: 2026-05-25T02:17:42.775872Z

Period
94.10 min
Inclination
53.1571°
Eccentricity
0.0001084
Mean motion
15.30208090 rev/d
Perigee alt
474.4 km
Apogee alt
475.9 km
Semi-major
6,853.3 km
B*
5.1264e-4
RAAN
173.2522°
Arg perigee
91.4729°
Mean anomaly
268.6396°
Rev number
4,145

§ Raw data

STARLINK-348691 65371U 25190W   26145.09563398  .00014858  00000+0  51264-3 0  99962 65371  53.1571 173.2522 0001084  91.4729 268.6396 15.30208090 41455

JSON: /api/v1/satellites/65371 · /tle

For live sub-satellite position, see the globe view (requires WebGL).

§ Visibility from observer

Set your observer location to see the next 7 days of passes ≥ 10°. The values pass through the URL so the page stays shareable.

No JS? Fill the form by hand. The geolocation button needs JavaScript.